Flag for U.S.A. Weather past 2 weeks in Cheyenne, Wyoming, U.S.A.

Now
34 °F

Clear.


Feels Like: 24 °F
Forecast: 28 / 41 °F
Wind: 16 mph from West

Location: Cheyenne Airport

Current Time: Dec 19, 2014 at 5:36:09 PM

Latest Report: Dec 19, 2014 at 4:53 PM


Visibility: 10 mi

Pressure: 30.09 "Hg

Humidity: 42%

Dew point: 13 °F

Location of CheyenneLocation

Historic Weather in Cheyenne — Graph

°F

Cheyenne temperature yesterday

Maximum temperature yesterday: 41 °F (at 12:53 PM)
Minimum temperature yesterday: 21 °F (at 5:53 AM)
Average temperature yesterday: 30 °F

Past Weeks' High & Low Weather Summary

 TemperatureHumidityPressure
High64 °F (Dec 12, 12:53 PM)85% (Dec 14, 10:53 AM)30.41 "Hg (Dec 14, 10:53 AM)
Low17 °F (Dec 16, 12:53 AM)11% (Dec 12, 12:53 PM)29.62 "Hg (Dec 14, 12:53 AM)
Average36 °F54%30.08 "Hg
* Reported Dec 4 3:53 PM — Dec 19 3:53 PM, Cheyenne, Weather by CustomWeather, © 2014

Note: Actual official high and low records may vary slightly from our data, if they occured in-between our weather recording intervals... More about our weather records

Advertising

Cheyenne weather history for previous 24 hours

 ConditionsComfort  
Time TempWeatherWind HumidityBarometerVisibility
3:53 PM
Dec 19
35 °FSunny.6 mph40%30.08 "Hg10 mi
2:53 PM37 °FSunny.21 mph37%30.07 "Hg10 mi
1:53 PM39 °FSunny.28 mph36%30.05 "Hg10 mi
12:53 PM40 °FSunny.23 mph35%30.05 "Hg10 mi
11:53 AM38 °FSunny.24 mph36%30.09 "Hg10 mi
10:53 AM38 °FSunny.25 mph36%30.10 "Hg10 mi
9:53 AM36 °FSunny.22 mph40%30.11 "Hg10 mi
8:53 AM32 °FSunny.20 mph47%30.13 "Hg10 mi
7:53 AM29 °FSunny.14 mph54%30.14 "Hg10 mi
6:53 AM22 °FClear.12 mph66%30.17 "Hg10 mi
5:53 AM21 °FClear.8 mph65%30.18 "Hg10 mi
4:53 AM23 °FClear.9 mph60%30.13 "Hg10 mi
3:53 AM24 °FClear.10 mph60%30.10 "Hg10 mi
2:53 AM22 °FClear.9 mph62%30.10 "Hg10 mi
1:53 AM22 °FClear.6 mph62%30.10 "Hg10 mi
12:53 AM23 °FClear.8 mph60%30.09 "Hg10 mi
11:53 PM
Dec 18
23 °FClear.8 mph63%30.11 "Hg10 mi
10:53 PM26 °FClear.9 mph57%30.11 "Hg10 mi
9:53 PM28 °FClear.13 mph56%30.12 "Hg10 mi
8:53 PM28 °FClear.9 mph58%30.14 "Hg10 mi
7:53 PM29 °FClear.9 mph56%30.15 "Hg10 mi
6:53 PM28 °FClear.7 mph61%30.15 "Hg10 mi
5:53 PM27 °FClear.8 mph66%30.17 "Hg10 mi
Weather by CustomWeather, © 2014

See weather overviewHow to use our weather pages